| time (UTC) | temp C | wind direction | speed KPH | gust KPH | rain 1hr cm | rain 24hr cm | rain mn cm | humidity % | barometer mb |
| 20260506020020 | 19 | 314 | 3.2 | 22.5 | 0.00 | 0.00 | 0.00 | 34 | 1014.4 |
| 20260506015509 | 19 | 348 | 6.4 | 22.5 | 0.00 | 0.00 | 0.00 | 33 | 1014.4 |
| 20260506015005 | 19 | 299 | 6.4 | 20.9 | 0.00 | 0.00 | 0.00 | 33 | 1014.4 |
| 20260506014504 | 19 | 330 | 8.0 | 22.5 | 0.00 | 0.00 | 0.00 | 31 | 1014.3 |
| 20260506014004 | 20 | 350 | 9.7 | 22.5 | 0.00 | 0.00 | 0.00 | 31 | 1014.3 |
| 20260506013504 | 20 | 319 | 6.4 | 20.9 | 0.00 | 0.00 | 0.00 | 32 | 1014.2 |
| 20260506013009 | 20 | 35 | 8.0 | 25.7 | 0.00 | 0.00 | 0.00 | 31 | 1014.2 |
| 20260506012503 | 20 | 333 | 9.7 | 25.7 | 0.00 | 0.00 | 0.00 | 33 | 1014.2 |
| 20260506012009 | 20 | 338 | 8.0 | 25.7 | 0.00 | 0.00 | 0.00 | 33 | 1014.2 |
| 20260506011515 | 20 | 355 | 14.5 | 25.7 | 0.00 | 0.00 | 0.00 | 30 | 1014.2 |
| 20260506011008 | 20 | 323 | 6.4 | 20.9 | 0.00 | 0.00 | 0.00 | 32 | 1014.1 |
| 20260506010504 | 20 | 346 | 9.7 | 22.5 | 0.00 | 0.00 | 0.00 | 32 | 1014.1 |
| 20260506010025 | 20 | 316 | 8.0 | 25.7 | 0.00 | 0.00 | 0.00 | 32 | 1014.0 |
| 20260506005508 | 20 | 275 | 11.3 | 25.7 | 0.00 | 0.00 | 0.00 | 31 | 1014.1 |
| 20260506005008 | 21 | 296 | 11.3 | 25.7 | 0.00 | 0.00 | 0.00 | 30 | 1014.1 |
| 20260506004522 | 21 | 336 | 11.3 | 22.5 | 0.00 | 0.00 | 0.00 | 30 | 1014.0 |
| 20260506004009 | 21 | 360 | 9.7 | 22.5 | 0.00 | 0.00 | 0.00 | 30 | 1014.0 |
| 20260506003503 | 21 | 302 | 9.7 | 20.9 | 0.00 | 0.00 | 0.00 | 32 | 1014.0 |
| 20260506003006 | 21 | 307 | 8.0 | 25.7 | 0.00 | 0.00 | 0.00 | 29 | 1013.9 |
| 20260506002504 | 21 | 293 | 11.3 | 25.7 | 0.00 | 0.00 | 0.00 | 30 | 1013.9 |
| 20260506002006 | 21 | 252 | 4.8 | 22.5 | 0.00 | 0.00 | 0.00 | 33 | 1013.9 |
| 20260506001510 | 20 | 306 | 6.4 | 20.9 | 0.00 | 0.00 | 0.00 | 34 | 1013.9 |
| 20260506001006 | 21 | 360 | 8.0 | 27.4 | 0.00 | 0.00 | 0.00 | 30 | 1013.9 |
| 20260506000506 | 21 | 315 | 8.0 | 27.4 | 0.00 | 0.00 | 0.00 | 31 | 1014.0 |
| 20260506000017 | 21 | 266 | 11.3 | 24.1 | 0.00 | 0.00 | 0.00 | 33 | 1014.0 |
| 20260505235506 | 20 | 304 | 8.0 | 20.9 | 0.00 | 0.00 | 0.00 | 31 | 1013.7 |
| 20260505235009 | 20 | 279 | 4.8 | 14.5 | 0.00 | 0.00 | 0.00 | 34 | 1013.9 |
| 20260505234527 | 19 | 303 | 8.0 | 27.4 | 0.00 | 0.00 | 0.00 | 34 | 1013.9 |
| 20260505234011 | 20 | 290 | 6.4 | 27.4 | 0.00 | 0.00 | 0.00 | 34 | 1013.8 |
| 20260505233509 | 20 | 301 | 9.7 | 25.7 | 0.00 | 0.00 | 0.00 | 33 | 1013.8 |
| 20260505233025 | 21 | 322 | 12.9 | 25.7 | 0.00 | 0.00 | 0.00 | 31 | 1014.0 |
| 20260505232506 | 21 | 360 | 8.0 | 24.1 | 0.00 | 0.00 | 0.00 | 32 | 1013.8 |
| 20260505232003 | 21 | 302 | 6.4 | 24.1 | 0.00 | 0.00 | 0.00 | 33 | 1013.9 |
| 20260505231507 | 20 | 303 | 6.4 | 17.7 | 0.00 | 0.00 | 0.00 | 34 | 1013.8 |
| 20260505231009 | 19 | 346 | 8.0 | 17.7 | 0.00 | 0.00 | 0.00 | 36 | 1013.9 |
| 20260505230503 | 20 | 341 | 8.0 | 17.7 | 0.00 | 0.00 | 0.00 | 35 | 1014.0 |
| 20260505230033 | 20 | 307 | 9.7 | 24.1 | 0.00 | 0.00 | 0.00 | 34 | 1013.9 |
| 20260505225507 | 21 | 247 | 8.0 | 24.1 | 0.00 | 0.00 | 0.00 | 35 | 1013.9 |
| 20260505225007 | 21 | 324 | 6.4 | 20.9 | 0.00 | 0.00 | 0.00 | 35 | 1013.8 |
| 20260505224518 | 21 | 300 | 8.0 | 20.9 | 0.00 | 0.00 | 0.00 | 38 | 1013.9 |
| 20260505224011 | 20 | 303 | 11.3 | 20.9 | 0.00 | 0.00 | 0.00 | 34 | 1013.9 |
| 20260505223512 | 20 | 331 | 9.7 | 19.3 | 0.00 | 0.00 | 0.00 | 36 | 1013.9 |
| 20260505223027 | 21 | 253 | 9.7 | 24.1 | 0.00 | 0.00 | 0.00 | 34 | 1013.9 |
| 20260505222509 | 20 | 303 | 9.7 | 24.1 | 0.00 | 0.00 | 0.00 | 38 | 1014.0 |
| 20260505222013 | 20 | 311 | 11.3 | 22.5 | 0.00 | 0.00 | 0.00 | 34 | 1014.0 |
| 20260505221533 | 21 | 325 | 9.7 | 22.5 | 0.00 | 0.00 | 0.00 | 39 | 1014.0 |
| 20260505221010 | 21 | 327 | 8.0 | 20.9 | 0.00 | 0.00 | 0.00 | 35 | 1013.9 |
| 20260505220504 | 21 | 298 | 9.7 | 24.1 | 0.00 | 0.00 | 0.00 | 38 | 1013.9 |
| 20260505220011 | 20 | 257 | 6.4 | 25.7 | 0.00 | 0.00 | 0.00 | 36 | 1014.0 |
| 20260505215506 | 20 | 285 | 8.0 | 25.7 | 0.00 | 0.00 | 0.00 | 37 | 1014.2 |
| 20260505215007 | 19 | 317 | 4.8 | 19.3 | 0.00 | 0.00 | 0.00 | 37 | 1014.0 |
| 20260505214519 | 19 | 302 | 9.7 | 17.7 | 0.00 | 0.00 | 0.00 | 36 | 1014.0 |
| 20260505214009 | 19 | 40 | 4.8 | 20.9 | 0.00 | 0.00 | 0.00 | 36 | 1014.0 |
| 20260505213506 | 19 | 344 | 6.4 | 24.1 | 0.00 | 0.00 | 0.00 | 44 | 1014.1 |
| 20260505213021 | 18 | 328 | 6.4 | 24.1 | 0.00 | 0.00 | 0.00 | 37 | 1014.0 |
| 20260505212509 | 19 | 338 | 12.9 | 24.1 | 0.00 | 0.00 | 0.00 | 37 | 1014.1 |
| 20260505212010 | 20 | 267 | 6.4 | 24.1 | 0.00 | 0.00 | 0.00 | 37 | 1014.1 |
| 20260505211526 | 20 | 231 | 6.4 | 17.7 | 0.00 | 0.00 | 0.00 | 35 | 1014.1 |
| 20260505211008 | 19 | 5 | 9.7 | 17.7 | 0.00 | 0.00 | 0.00 | 39 | 1014.2 |
| 20260505210510 | 20 | 351 | 8.0 | 27.4 | 0.00 | 0.00 | 0.00 | 37 | 1014.2 |
| 20260505210026 | 20 | 327 | 9.7 | 27.4 | 0.00 | 0.00 | 0.00 | 36 | 1014.1 |
| 20260505205507 | 20 | 296 | 9.7 | 22.5 | 0.00 | 0.00 | 0.00 | 32 | 1014.1 |
| 20260505205007 | 20 | 15 | 9.7 | 22.5 | 0.00 | 0.00 | 0.00 | 31 | 1014.2 |
| 20260505204517 | 18 | 285 | 8.0 | 20.9 | 0.00 | 0.00 | 0.00 | 37 | 1014.2 |
| 20260505204006 | 18 | 304 | 6.4 | 17.7 | 0.00 | 0.00 | 0.00 | 39 | 1014.2 |
| 20260505203506 | 18 | 159 | 6.4 | 17.7 | 0.00 | 0.00 | 0.00 | 39 | 1014.2 |
| 20260505203030 | 18 | 270 | 3.2 | 14.5 | 0.00 | 0.00 | 0.00 | 45 | 1014.2 |
| 20260505202508 | 18 | 108 | 4.8 | 20.9 | 0.00 | 0.00 | 0.00 | 45 | 1014.1 |
| 20260505202013 | 17 | 247 | 4.8 | 20.9 | 0.00 | 0.00 | 0.00 | 43 | 1014.2 |
| 20260505201522 | 18 | 306 | 9.7 | 24.1 | 0.00 | 0.00 | 0.00 | 43 | 1014.2 |
| 20260505201008 | 18 | 355 | 9.7 | 24.1 | 0.00 | 0.00 | 0.00 | 44 | 1014.2 |
| 20260505200514 | 18 | 273 | 4.8 | 14.5 | 0.00 | 0.00 | 0.00 | 45 | 1014.2 |
| 20260505200034 | 18 | 328 | 3.2 | 11.3 | 0.00 | 0.00 | 0.00 | 42 | 1014.2 |
| 20260505195506 | 18 | 286 | 3.2 | 11.3 | 0.00 | 0.00 | 0.00 | 45 | 1014.4 |
| 20260505195011 | 18 | 330 | 3.2 | 11.3 | 0.00 | 0.00 | 0.00 | 45 | 1014.3 |
| 20260505194530 | 17 | 302 | 3.2 | 9.7 | 0.00 | 0.00 | 0.00 | 45 | 1014.3 |
| 20260505194007 | 17 | 302 | 3.2 | 14.5 | 0.00 | 0.00 | 0.00 | 45 | 1014.4 |
| 20260505193509 | 17 | 296 | 6.4 | 16.1 | 0.00 | 0.00 | 0.00 | 45 | 1014.5 |
| 20260505193017 | 18 | 316 | 6.4 | 17.7 | 0.00 | 0.00 | 0.00 | 45 | 1014.4 |
| 20260505192507 | 17 | 236 | 1.6 | 17.7 | 0.00 | 0.00 | 0.00 | 52 | 1014.5 |
| 20260505192009 | 17 | 195 | 4.8 | 17.7 | 0.00 | 0.00 | 0.00 | 57 | 1014.4 |
| 20260505191528 | 17 | 178 | 8.0 | 16.1 | 0.00 | 0.00 | 0.00 | 54 | 1014.4 |
| 20260505191008 | 17 | 157 | 8.0 | 16.1 | 0.00 | 0.00 | 0.00 | 54 | 1014.4 |
| 20260505190511 | 17 | 177 | 6.4 | 16.1 | 0.00 | 0.00 | 0.00 | 55 | 1014.4 |
| 20260505190027 | 17 | 191 | 6.4 | 16.1 | 0.00 | 0.00 | 0.00 | 54 | 1014.4 |
| 20260505185511 | 16 | 292 | 4.8 | 14.5 | 0.00 | 0.00 | 0.00 | 57 | 1014.4 |
| 20260505185011 | 16 | 195 | 4.8 | 14.5 | 0.00 | 0.00 | 0.00 | 56 | 1014.4 |
| 20260505184527 | 16 | 213 | 0.0 | 19.3 | 0.00 | 0.00 | 0.00 | 56 | 1014.4 |
| 20260505184010 | 16 | 290 | 3.2 | 19.3 | 0.00 | 0.00 | 0.00 | 60 | 1014.4 |
| 20260505183510 | 15 | 188 | 4.8 | 17.7 | 0.00 | 0.00 | 0.00 | 60 | 1014.4 |
| 20260505183030 | 15 | 69 | 3.2 | 11.3 | 0.00 | 0.00 | 0.00 | 58 | 1014.4 |
| 20260505182507 | 15 | 213 | 4.8 | 12.9 | 0.00 | 0.00 | 0.00 | 57 | 1014.4 |
| 20260505182010 | 15 | 278 | 4.8 | 12.9 | 0.00 | 0.00 | 0.00 | 61 | 1014.4 |
| 20260505181519 | 15 | 208 | 3.2 | 12.9 | 0.00 | 0.00 | 0.00 | 61 | 1014.4 |
| 20260505181006 | 14 | 190 | 4.8 | 11.3 | 0.00 | 0.00 | 0.00 | 66 | 1014.4 |
| 20260505180505 | 14 | 144 | 3.2 | 14.5 | 0.00 | 0.00 | 0.00 | 65 | 1014.4 |
| 20260505180003 | 13 | 171 | 1.6 | 14.5 | 0.00 | 0.00 | 0.00 | 67 | 1014.5 |
| 20260505175503 | 13 | 173 | 6.4 | 12.9 | 0.00 | 0.00 | 0.00 | 66 | 1014.6 |
| 20260505175004 | 13 | 172 | 3.2 | 14.5 | 0.00 | 0.00 | 0.00 | 67 | 1014.4 |
| 20260505174511 | 13 | 180 | 3.2 | 14.5 | 0.00 | 0.00 | 0.00 | 68 | 1014.4 |
| 20260505174005 | 13 | 119 | 3.2 | 8.0 | 0.00 | 0.00 | 0.00 | 65 | 1014.4 |
| 20260505173503 | 13 | 330 | 1.6 | 8.0 | 0.00 | 0.00 | 0.00 | 72 | 1014.5 |
| 20260505173032 | 12 | 288 | 3.2 | 8.0 | 0.00 | 0.00 | 0.00 | 72 | 1014.5 |
| 20260505172505 | 12 | 5 | 3.2 | 12.9 | 0.00 | 0.00 | 0.00 | 72 | 1014.5 |
| 20260505172008 | 12 | 315 | 1.6 | 12.9 | 0.00 | 0.00 | 0.00 | 71 | 1014.6 |
| 20260505171518 | 12 | 302 | 3.2 | 12.9 | 0.00 | 0.00 | 0.00 | 72 | 1014.6 |
| 20260505171010 | 12 | 190 | 3.2 | 6.4 | 0.00 | 0.00 | 0.00 | 74 | 1014.7 |
| 20260505170506 | 11 | 255 | 1.6 | 6.4 | 0.00 | 0.00 | 0.00 | 75 | 1014.7 |
| 20260505170024 | 11 | 270 | 1.6 | 6.4 | 0.00 | 0.00 | 0.00 | 78 | 1014.7 |
| 20260505165508 | 11 | 199 | 1.6 | 6.4 | 0.00 | 0.00 | 0.00 | 76 | 1014.7 |
| 20260505165003 | 10 | 252 | 3.2 | 8.0 | 0.00 | 0.00 | 0.00 | 80 | 1014.6 |
| 20260505164505 | 10 | 175 | 1.6 | 8.0 | 0.00 | 0.00 | 0.00 | 78 | 1014.6 |
| 20260505164003 | 10 | 219 | 3.2 | 8.0 | 0.00 | 0.00 | 0.00 | 81 | 1014.6 |
| 20260505163502 | 10 | 156 | 4.8 | 14.5 | 0.00 | 0.00 | 0.00 | 81 | 1014.6 |
| 20260505163012 | 10 | 206 | 6.4 | 14.5 | 0.00 | 0.00 | 0.00 | 82 | 1014.7 |
| 20260505162504 | 10 | 186 | 4.8 | 11.3 | 0.00 | 0.00 | 0.00 | 82 | 1014.8 |
| 20260505162007 | 9 | 211 | 4.8 | 11.3 | 0.00 | 0.00 | 0.00 | 83 | 1014.7 |
| 20260505161510 | 9 | 220 | 3.2 | 12.9 | 0.00 | 0.00 | 0.00 | 83 | 1014.7 |
| 20260505161009 | 8 | 207 | 8.0 | 12.9 | 0.00 | 0.00 | 0.00 | 84 | 1014.7 |
| 20260505160504 | 8 | 207 | 4.8 | 12.9 | 0.00 | 0.00 | 0.00 | 85 | 1014.8 |
| 20260505153009 | 7 | 180 | 4.8 | 9.7 | 0.00 | 0.00 | 0.00 | 90 | 1014.6 |
| 20260505152505 | 7 | 200 | 6.4 | 11.3 | 0.00 | 0.00 | 0.00 | 90 | 1014.5 |
| 20260505152006 | 7 | 197 | 4.8 | 11.3 | 0.00 | 0.00 | 0.00 | 91 | 1014.4 |
| 20260505151507 | 7 | 209 | 6.4 | 9.7 | 0.00 | 0.00 | 0.00 | 91 | 1014.3 |
| 20260505151003 | 7 | 200 | 6.4 | 9.7 | 0.00 | 0.00 | 0.00 | 91 | 1014.3 |
| 20260505150506 | 7 | 214 | 3.2 | 8.0 | 0.00 | 0.00 | 0.00 | 91 | 1014.2 |
| 20260505140505 | 6 | 219 | 0.0 | 6.4 | 0.00 | 0.00 | 0.00 | 92 | 1013.5 |
| 20260505125005 | 6 | 100 | 0.0 | 0.0 | 0.00 | 0.00 | 0.00 | 92 | 1012.9 |
| 20260505124512 | 6 | 100 | 0.0 | 0.0 | 0.00 | 0.00 | 0.00 | 92 | 1013.0 |
| 20260505124010 | 6 | 100 | 0.0 | 0.0 | 0.00 | 0.00 | 0.00 | 92 | 1013.0 |
| 20260505123506 | 6 | 100 | 0.0 | 0.0 | 0.00 | 0.00 | 0.00 | 92 | 1012.9 |
| 20260505123017 | 6 | 100 | 0.0 | 0.0 | 0.00 | 0.00 | 0.00 | 93 | 1012.9 |
| 20260505122507 | 6 | 100 | 0.0 | 0.0 | 0.00 | 0.00 | 0.00 | 92 | 1012.9 |
| 20260505122007 | 6 | 100 | 0.0 | 0.0 | 0.00 | 0.00 | 0.00 | 93 | 1012.9 |
| 20260505121524 | 5 | 100 | 0.0 | 0.0 | 0.00 | 0.00 | 0.00 | 92 | 1013.0 |
| 20260505121010 | 5 | 100 | 0.0 | 0.0 | 0.00 | 0.00 | 0.00 | 91 | 1012.8 |
| 20260505120511 | 5 | 100 | 0.0 | 1.6 | 0.00 | 0.00 | 0.00 | 91 | 1012.8 |
| 20260505120024 | 5 | 100 | 0.0 | 1.6 | 0.00 | 0.00 | 0.00 | 90 | 1012.8 |
| 20260505115507 | 5 | 100 | 0.0 | 8.0 | 0.00 | 0.00 | 0.00 | 90 | 1012.8 |
| 20260505115011 | 6 | 103 | 0.0 | 9.7 | 0.00 | 0.00 | 0.00 | 90 | 1012.8 |
| 20260505114510 | 6 | 144 | 3.2 | 9.7 | 0.00 | 0.00 | 0.00 | 91 | 1012.8 |
| 20260505114006 | 6 | 186 | 0.0 | 3.2 | 0.00 | 0.00 | 0.00 | 89 | 1012.6 |
| 20260505113503 | 6 | 86 | 0.0 | 0.0 | 0.00 | 0.00 | 0.00 | 89 | 1012.6 |
| 20260505113015 | 6 | 86 | 0.0 | 3.2 | 0.00 | 0.00 | 0.00 | 88 | 1012.6 |
| 20260505112504 | 6 | 65 | 0.0 | 3.2 | 0.00 | 0.00 | 0.00 | 89 | 1012.6 |
| 20260505112005 | 6 | 29 | 0.0 | 3.2 | 0.00 | 0.00 | 0.00 | 88 | 1012.5 |
| 20260505111519 | 6 | 205 | 0.0 | 3.2 | 0.00 | 0.00 | 0.00 | 88 | 1012.6 |
| 20260505111008 | 7 | 94 | 0.0 | 4.8 | 0.00 | 0.00 | 0.00 | 88 | 1012.5 |
| 20260505110509 | 7 | 82 | 0.0 | 12.9 | 0.00 | 0.00 | 0.00 | 88 | 1012.5 |
| 20260505102006 | 7 | 207 | 4.8 | 12.9 | 0.00 | 0.00 | 0.00 | 87 | 1012.6 |
| 20260505101516 | 7 | 165 | 4.8 | 12.9 | 0.00 | 0.00 | 0.00 | 87 | 1012.6 |
| 20260505101007 | 7 | 151 | 3.2 | 11.3 | 0.00 | 0.00 | 0.00 | 87 | 1012.5 |
| 20260505100507 | 8 | 186 | 6.4 | 11.3 | 0.00 | 0.00 | 0.00 | 87 | 1012.6 |
| 20260505100024 | 8 | 187 | 3.2 | 14.5 | 0.00 | 0.00 | 0.00 | 87 | 1012.5 |
| 20260505095510 | 8 | 156 | 3.2 | 14.5 | 0.00 | 0.00 | 0.00 | 87 | 1012.4 |
| 20260505095008 | 8 | 148 | 4.8 | 11.3 | 0.00 | 0.00 | 0.00 | 87 | 1012.5 |
| 20260505094525 | 8 | 163 | 1.6 | 9.7 | 0.00 | 0.00 | 0.00 | 87 | 1012.5 |
| 20260505094012 | 8 | 132 | 0.0 | 9.7 | 0.00 | 0.00 | 0.00 | 87 | 1012.3 |
| 20260505093508 | 8 | 206 | 4.8 | 11.3 | 0.00 | 0.00 | 0.00 | 87 | 1012.4 |
| 20260505093028 | 8 | 163 | 4.8 | 11.3 | 0.00 | 0.00 | 0.00 | 87 | 1012.4 |
| 20260505092509 | 8 | 162 | 3.2 | 9.7 | 0.00 | 0.00 | 0.00 | 87 | 1012.6 |
| 20260505092012 | 8 | 184 | 0.0 | 3.2 | 0.00 | 0.00 | 0.00 | 87 | 1012.8 |
| 20260505091512 | 8 | 155 | 0.0 | 3.2 | 0.00 | 0.00 | 0.00 | 87 | 1012.6 |
| 20260505091006 | 8 | 155 | 0.0 | 3.2 | 0.00 | 0.00 | 0.00 | 87 | 1012.7 |
| 20260505090507 | 8 | 157 | 0.0 | 4.8 | 0.00 | 0.00 | 0.00 | 87 | 1012.5 |
| 20260505090019 | 8 | 165 | 0.0 | 8.0 | 0.00 | 0.00 | 0.00 | 87 | 1012.6 |
| 20260505085512 | 8 | 160 | 1.6 | 8.0 | 0.00 | 0.00 | 0.00 | 87 | 1012.5 |
| 20260505085008 | 8 | 114 | 1.6 | 6.4 | 0.00 | 0.00 | 0.00 | 86 | 1012.7 |
| 20260505084533 | 8 | 128 | 0.0 | 6.4 | 0.00 | 0.00 | 0.00 | 87 | 1012.7 |
| 20260505084009 | 8 | 192 | 1.6 | 6.4 | 0.00 | 0.00 | 0.00 | 86 | 1012.8 |
| 20260505083511 | 8 | 186 | 0.0 | 9.7 | 0.00 | 0.00 | 0.00 | 86 | 1012.8 |
| 20260505083003 | 8 | 173 | 4.8 | 11.3 | 0.00 | 0.00 | 0.00 | 86 | 1012.8 |
| 20260505082503 | 8 | 145 | 3.2 | 11.3 | 0.00 | 0.00 | 0.00 | 86 | 1012.9 |
| 20260505082004 | 8 | 145 | 1.6 | 8.0 | 0.00 | 0.00 | 0.00 | 86 | 1012.9 |
| 20260505081508 | 8 | 151 | 1.6 | 8.0 | 0.00 | 0.00 | 0.00 | 86 | 1012.8 |
| 20260505081005 | 8 | 165 | 3.2 | 9.7 | 0.00 | 0.00 | 0.00 | 86 | 1012.8 |
| 20260505080504 | 8 | 156 | 1.6 | 9.7 | 0.00 | 0.00 | 0.00 | 86 | 1012.8 |
| 20260505080014 | 8 | 163 | 3.2 | 9.7 | 0.00 | 0.00 | 0.00 | 86 | 1012.8 |
| 20260505075506 | 8 | 180 | 1.6 | 9.7 | 0.00 | 0.00 | 0.00 | 86 | 1012.8 |
| 20260505075008 | 8 | 149 | 4.8 | 9.7 | 0.00 | 0.00 | 0.00 | 86 | 1012.9 |
| 20260505074518 | 8 | 155 | 1.6 | 6.4 | 0.00 | 0.00 | 0.00 | 86 | 1012.8 |
| 20260505074005 | 8 | 167 | 0.0 | 4.8 | 0.00 | 0.00 | 0.00 | 86 | 1012.8 |
| 20260505073509 | 8 | 162 | 1.6 | 4.8 | 0.00 | 0.00 | 0.00 | 86 | 1012.8 |
| 20260505073022 | 8 | 204 | 0.0 | 8.0 | 0.00 | 0.00 | 0.00 | 85 | 1012.9 |
| 20260505072510 | 8 | 195 | 1.6 | 11.3 | 0.00 | 0.00 | 0.00 | 86 | 1012.8 |
| 20260505072010 | 8 | 119 | 0.0 | 16.1 | 0.00 | 0.00 | 0.00 | 85 | 1012.8 |
| 20260505071530 | 8 | 162 | 4.8 | 16.1 | 0.00 | 0.00 | 0.00 | 85 | 1012.6 |
| 20260505071005 | 8 | 144 | 4.8 | 14.5 | 0.00 | 0.00 | 0.00 | 85 | 1012.7 |
| 20260505070505 | 9 | 148 | 8.0 | 20.9 | 0.00 | 0.00 | 0.00 | 85 | 1012.7 |
| 20260505070011 | 8 | 148 | 9.7 | 20.9 | 0.00 | 0.00 | 0.00 | 85 | 1012.6 |
| 20260505065505 | 9 | 144 | 6.4 | 17.7 | 0.00 | 0.00 | 0.00 | 85 | 1012.5 |
| 20260505065008 | 9 | 141 | 9.7 | 17.7 | 0.00 | 0.00 | 0.00 | 85 | 1012.4 |
| 20260505064517 | 9 | 173 | 8.0 | 14.5 | 0.00 | 0.00 | 0.00 | 85 | 1012.2 |
| 20260505064008 | 9 | 169 | 4.8 | 12.9 | 0.00 | 0.00 | 0.00 | 85 | 1012.1 |
| 20260505063507 | 9 | 166 | 6.4 | 17.7 | 0.00 | 0.00 | 0.00 | 85 | 1012.2 |
| 20260505063031 | 9 | 170 | 8.0 | 17.7 | 0.00 | 0.00 | 0.00 | 84 | 1012.1 |
| 20260505062509 | 9 | 169 | 4.8 | 14.5 | 0.00 | 0.00 | 0.00 | 84 | 1012.3 |
| 20260505062009 | 9 | 190 | 4.8 | 16.1 | 0.00 | 0.00 | 0.00 | 84 | 1012.3 |
| 20260505061531 | 9 | 128 | 4.8 | 16.1 | 0.00 | 0.00 | 0.00 | 84 | 1012.1 |
| 20260505061007 | 9 | 184 | 8.0 | 16.1 | 0.00 | 0.00 | 0.00 | 84 | 1012.0 |
| 20260505060512 | 9 | 143 | 6.4 | 14.5 | 0.00 | 0.00 | 0.00 | 83 | 1011.9 |
| 20260505060026 | 9 | 148 | 6.4 | 20.9 | 0.00 | 0.00 | 0.00 | 83 | 1011.8 |
| 20260505055507 | 10 | 146 | 8.0 | 20.9 | 0.00 | 0.00 | 0.00 | 82 | 1011.7 |
| 20260505055005 | 10 | 181 | 8.0 | 17.7 | 0.00 | 0.00 | 0.00 | 81 | 1011.8 |
| 20260505054520 | 10 | 194 | 9.7 | 17.7 | 0.00 | 0.00 | 0.00 | 79 | 1011.6 |
| 20260505054007 | 10 | 182 | 6.4 | 16.1 | 0.00 | 0.00 | 0.00 | 79 | 1011.6 |
| 20260505053509 | 10 | 181 | 6.4 | 17.7 | 0.00 | 0.00 | 0.00 | 78 | 1011.6 |
| 20260505053015 | 11 | 193 | 9.7 | 20.9 | 0.00 | 0.00 | 0.00 | 78 | 1011.5 |
| 20260505052507 | 11 | 163 | 12.9 | 20.9 | 0.00 | 0.00 | 0.00 | 77 | 1011.3 |
| 20260505052010 | 11 | 164 | 4.8 | 11.3 | 0.00 | 0.00 | 0.00 | 74 | 1011.2 |
| 20260505051532 | 11 | 292 | 0.0 | 4.8 | 0.00 | 0.00 | 0.00 | 73 | 1011.2 |
| 20260505051009 | 11 | 304 | 0.0 | 4.8 | 0.00 | 0.00 | 0.00 | 72 | 1011.1 |
| 20260505050510 | 11 | 304 | 1.6 | 4.8 | 0.00 | 0.00 | 0.00 | 71 | 1011.0 |
| 20260505041520 | 12 | 136 | 6.4 | 16.1 | 0.00 | 0.00 | 0.00 | 69 | 1010.9 |
| 20260505041007 | 12 | 188 | 8.0 | 20.9 | 0.00 | 0.00 | 0.00 | 69 | 1010.9 |
| 20260505040511 | 12 | 173 | 8.0 | 20.9 | 0.00 | 0.00 | 0.00 | 68 | 1010.8 |
| 20260505040023 | 12 | 151 | 12.9 | 20.9 | 0.00 | 0.00 | 0.00 | 68 | 1010.7 |
| 20260505035509 | 13 | 170 | 8.0 | 16.1 | 0.00 | 0.00 | 0.00 | 67 | 1010.5 |
| 20260505035008 | 13 | 115 | 6.4 | 16.1 | 0.00 | 0.00 | 0.00 | 66 | 1010.4 |
| 20260505034529 | 13 | 170 | 8.0 | 24.1 | 0.00 | 0.00 | 0.00 | 65 | 1010.2 |
| 20260505034008 | 13 | 161 | 8.0 | 29.0 | 0.00 | 0.00 | 0.00 | 64 | 1010.0 |
| 20260505033515 | 13 | 164 | 12.9 | 29.0 | 0.00 | 0.00 | 0.00 | 63 | 1009.8 |
| 20260505033040 | 13 | 152 | 6.4 | 29.0 | 0.00 | 0.00 | 0.00 | 61 | 1009.9 |
| 20260505032506 | 13 | 192 | 12.9 | 29.0 | 0.00 | 0.00 | 0.00 | 61 | 1009.8 |
| 20260505032008 | 14 | 159 | 14.5 | 20.9 | 0.00 | 0.00 | 0.00 | 60 | 1009.8 |
| 20260505031516 | 14 | 176 | 9.7 | 25.7 | 0.00 | 0.00 | 0.00 | 57 | 1009.7 |
| 20260505031007 | 15 | 173 | 11.3 | 25.7 | 0.00 | 0.00 | 0.00 | 56 | 1009.6 |
| 20260505030508 | 16 | 177 | 6.4 | 22.5 | 0.00 | 0.00 | 0.00 | 51 | 1009.5 |
| 20260505030023 | 16 | 123 | 8.0 | 22.5 | 0.00 | 0.00 | 0.00 | 45 | 1009.3 |
| 20260505025507 | 17 | 194 | 6.4 | 16.1 | 0.00 | 0.00 | 0.00 | 41 | 1009.3 |
| 20260505025009 | 17 | 349 | 0.0 | 8.0 | 0.00 | 0.00 | 0.00 | 30 | 1009.3 |
| 20260505024548 | 17 | 349 | 0.0 | 11.3 | 0.00 | 0.00 | 0.00 | 29 | 1009.1 |
| 20260505024008 | 18 | 46 | 0.0 | 11.3 | 0.00 | 0.00 | 0.00 | 29 | 1009.1 |
| 20260505023510 | 18 | 29 | 3.2 | 8.0 | 0.00 | 0.00 | 0.00 | 28 | 1009.0 |
| 20260505023037 | 18 | 55 | 4.8 | 17.7 | 0.00 | 0.00 | 0.00 | 27 | 1008.9 |
| 20260505022511 | 18 | 37 | 3.2 | 17.7 | 0.00 | 0.00 | 0.00 | 25 | 1008.8 |
| 20260505022014 | 18 | 355 | 3.2 | 12.9 | 0.00 | 0.00 | 0.00 | 26 | 1008.8 |
| 20260505021543 | 19 | 34 | 1.6 | 8.0 | 0.00 | 0.00 | 0.00 | 26 | 1008.9 |
| 20260505021007 | 19 | 350 | 3.2 | 12.9 | 0.00 | 0.00 | 0.00 | 26 | 1008.7 |
| 20260505020507 | 20 | 346 | 3.2 | 12.9 | 0.00 | 0.00 | 0.00 | 24 | 1008.7 |